Leesburg, FL

11:53 AM EST on December 08, 2019 (GMT -0500)
Leesburg Regional

Weather History for KLEE - November, 2019

Change the Weather History Date:

Thursday, November 14, 2019

  Actual Average Record
Temperature  
Mean Temperature 68 °F -  
Max Temperature 78 °F 75 °F 86 °F (2008)
Min Temperature 57 °F 52 °F 33 °F (1963)
Cooling Degree Days 2    
Growing Degree Days 18 (Base 50)    
Moisture  
Dew Point 62 °F    
Average Humidity 79    
Maximum Humidity 90    
Minimum Humidity 60    
Precipitation  
Precipitation 0.01 in - - ()
Sea Level Pressure  
Sea Level Pressure 30.10 in    
Wind  
Wind Speed 7 mph (NE)    
Max Wind Speed 12 mph    
Max Gust Speed 20 mph    
Visibility 10 miles    
Events      
Averages and records for this station are not official NWS values.
T = Trace of Precipitation, MM = Missing Value Source: NWS Daily Summary

Daily Weather History Graph

Daily Weather History Graph

Search for Another Location

Airport or City:

Astronomy

Nov. 14, 2019 Rise Set
Actual Time 6:49 AM EST 5:33 PM EST
Civil Twilight 6:24 AM EST 5:58 PM EST
Nautical Twilight 5:55 AM EST 6:27 PM EST
Astronomical Twilight 5:27 AM EST 6:55 PM EST
Moon 7:24 PM EST (11/14) 8:38 AM EST (11/14)
Length of Visible Light 11h 34m
Length of Day
10h 44m
Waning Gibbous, 95% of the Moon is Illuminated
Nov 14
Waning Gibbous
Nov 19
Last Quarter
Nov 26
New
Dec 4
First Quarter
Dec 12
Full

Hourly Weather History & Observations

Time (EST) Temp. Dew Point Humidity Pressure Visibility Wind Dir Wind Speed Gust Speed Precip Events Conditions
1:53 AM 57.9 °F 54.0 °F 87% 30.12 in 10.0 mi North 6.9 mph - N/A   Partly Cloudy
2:53 AM 57.9 °F 55.0 °F 90% 30.11 in 10.0 mi North 6.9 mph - N/A   Scattered Clouds
3:53 AM 57.9 °F 55.0 °F 90% 30.11 in 10.0 mi North 4.6 mph - N/A   Clear
4:53 AM 59.0 °F 55.0 °F 87% 30.12 in 10.0 mi North 6.9 mph - N/A   Mostly Cloudy
5:53 AM 59.0 °F 55.0 °F 87% 30.13 in 10.0 mi North 6.9 mph - N/A   Mostly Cloudy
6:53 AM 62.1 °F 57.9 °F 86% 30.14 in 10.0 mi NNE 9.2 mph - N/A   Overcast
7:19 AM 63.0 °F 59.0 °F 87% 30.14 in 10.0 mi NNE 5.8 mph - N/A   Mostly Cloudy
7:53 AM 64.9 °F 61.0 °F 87% 30.16 in 10.0 mi NNE 10.4 mph - N/A   Mostly Cloudy
8:53 AM 68.0 °F 61.0 °F 78% 30.17 in 10.0 mi NNE 11.5 mph - N/A   Scattered Clouds
9:53 AM 71.1 °F 62.1 °F 73% 30.15 in 10.0 mi NE 8.1 mph 19.6 mph N/A   Partly Cloudy
10:53 AM 75.0 °F 63.0 °F 66% 30.14 in 10.0 mi NE 11.5 mph - N/A   Mostly Cloudy
11:53 AM 77.0 °F 62.1 °F 60% 30.12 in 10.0 mi ENE 6.9 mph - N/A   Scattered Clouds
12:53 PM 78.1 °F 63.0 °F 60% 30.10 in 10.0 mi ENE 6.9 mph - N/A   Mostly Cloudy
1:53 PM 78.1 °F 63.0 °F 60% 30.07 in 10.0 mi ENE 6.9 mph - N/A   Partly Cloudy
2:53 PM 77.0 °F 64.0 °F 64% 30.06 in 10.0 mi ENE 6.9 mph - N/A   Overcast
3:53 PM 75.0 °F 66.0 °F 73% 30.05 in 10.0 mi NNE 8.1 mph - N/A   Overcast
4:53 PM 75.0 °F 66.0 °F 73% 30.05 in 10.0 mi NE 8.1 mph - N/A   Overcast
5:53 PM 73.9 °F 66.0 °F 76% 30.06 in 10.0 mi NNE 4.6 mph - N/A   Overcast
6:53 PM 73.0 °F 66.9 °F 81% 30.08 in 10.0 mi NNE 4.6 mph - N/A   Overcast
7:53 PM 72.0 °F 66.9 °F 84% 30.07 in 10.0 mi NE 5.8 mph - 0.00 in   Overcast
8:53 PM 72.0 °F 68.0 °F 87% 30.07 in 10.0 mi ENE 4.6 mph - 0.01 in   Overcast
9:53 PM 71.1 °F 68.0 °F 90% 30.06 in 10.0 mi NE 6.9 mph - 0.00 in   Mostly Cloudy
10:53 PM 70.0 °F 66.9 °F 90% 30.04 in 10.0 mi ENE 4.6 mph - N/A   Partly Cloudy
11:53 PM 70.0 °F 66.0 °F 87% 30.03 in 10.0 mi NE 4.6 mph - N/A   Mostly Cloudy